Theta_e
299 299 299 299 299 299 299 299 299 299 299 298 298 298 298 298 298 295 291 292 288 282 284 284 284 281 280 280 275 279 277 278 277 272 272 271 270 272 271 273 272 271 270 270 271 268 266 282 279 276 280 284 283 282
300 300 299 299 299 299 299 299 299 298 298 298 298 298 298 298 298 297 289 292 292 284 284 288 288 288 286 285 281 281 278 278 278 275 275 274 271 273 272 268 276 270 274 272 274 273 280 281 281 282 284 282 283 283
300 299 299 299 299 299 299 299 298 298 298 298 297 298 298 298 297 296 292 291 288 283 283 283 282 288 290 288 289 278 280 281 279 282 278 276 271 275 270 271 273 276 279 274 274 277 279 282 283 283 283 283 284 284
299 299 299 299 299 299 299 298 298 298 298 297 297 297 296 296 295 295 287 288 286 284 276 279 285 283 287 287 287 287 284 284 283 280 276 273 272 278 273 274 274 276 277 275 275 278 279 280 281 282 283 284 283 283
299 299 299 299 299 298 298 298 298 297 296 295 295 295 295 295 294 292 289 289 290 282 276 277 282 283 284 285 284 285 283 281 277 274 274 272 276 276 277 276 274 278 275 273 272 278 278 278 281 283 282 282 283 283
299 299 299 299 298 298 298 297 297 297 295 294 294 294 294 293 292 286 277 282 287 286 278 272 280 280 282 282 281 280 280 279 278 276 275 277 280 276 272 271 277 279 280 281 278 281 281 282 283 283 282 283 283 283
299 299 298 298 298 297 295 294 294 294 294 294 292 292 292 292 288 283 279 283 287 286 278 273 273 278 280 280 280 279 280 279 278 277 275 275 276 276 272 269 276 278 280 280 281 281 279 281 280 284 284 284 285 284
299 298 298 298 296 295 294 294 293 292 292 292 291 291 290 290 288 282 285 288 287 280 277 269 270 272 279 275 274 278 276 277 277 276 276 274 276 275 269 274 276 278 279 279 280 282 281 282 283 283 284 284 282 282
298 298 297 296 295 294 293 293 292 291 291 290 290 289 282 280 276 280 288 288 286 280 273 272 268 266 278 276 276 276 276 271 276 272 273 274 271 268 273 274 276 277 278 278 280 281 281 281 281 282 282 282 282 282
298 297 297 294 293 292 292 291 290 290 289 287 281 274 271 275 286 284 277 272 273 276 277 271 274 269 275 273 273 273 273 270 268 272 275 272 271 275 277 278 279 279 279 280 278 277 280 280 281 281 281 282 283 283
296 294 293 293 293 291 290 290 289 288 285 275 271 272 277 283 277 270 267 267 267 267 273 273 273 270 276 270 270 274 271 271 266 269 270 269 269 274 278 278 280 280 280 280 280 281 282 282 281 281 282 283 283 283
296 295 293 292 290 290 289 289 288 282 279 279 279 279 276 269 265 264 263 266 268 268 273 272 272 273 275 277 272 272 269 270 264 273 269 266 272 276 278 279 280 281 281 280 281 280 281 281 282 281 281 282 282 284
293 292 291 290 289 288 288 287 288 287 284 278 272 269 267 265 260 261 257 264 265 271 273 273 270 273 274 275 271 269 265 264 272 267 265 269 274 276 278 279 279 281 281 281 281 282 282 282 282 282 282 283 283 283
291 290 289 289 287 287 287 287 287 285 278 271 266 260 264 260 262 266 267 268 271 272 273 273 271 271 272 270 271 264 268 269 264 262 264 271 274 276 278 279 279 279 280 279 279 280 280 280 281 282 282 283 283 283
289 289 288 287 287 286 286 287 287 280 275 268 266 260 263 269 270 270 271 271 273 274 273 271 270 271 269 267 269 268 264 262 265 265 270 274 276 276 276 277 278 279 279 278 278 278 279 279 279 280 281 281 281 282
287 286 284 287 287 286 286 285 281 278 270 268 266 266 269 268 268 271 271 270 274 273 273 270 267 264 264 267 262 263 264 263 267 271 274 275 276 276 277 277 278 278 278 278 279 279 279 279 279 280 281 281 281 281
286 281 286 286 286 286 286 281 277 276 273 267 266 270 270 270 269 272 273 273 275 272 268 269 265 264 269 265 264 268 266 270 273 274 276 276 276 277 278 278 278 278 278 278 278 279 279 280 280 279 278 280 281 281
280 282 286 286 284 282 279 273 274 271 267 266 267 270 270 272 272 273 274 275 273 272 271 268 271 266 264 263 265 270 272 274 276 276 276 277 277 277 278 278 279 278 278 278 278 279 279 279 278 278 279 280 280 281
282 282 285 286 283 276 274 273 273 267 268 270 271 272 272 273 275 275 275 276 276 276 273 271 267 266 267 271 271 273 274 275 274 275 276 277 277 277 277 278 279 279 278 278 278 278 279 279 279 280 280 281 280 281
285 286 285 285 285 275 273 269 272 269 268 270 272 271 272 272 275 275 275 275 274 272 269 268 268 271 272 274 276 276 277 277 276 274 274 276 276 276 276 276 276 276 277 278 279 279 279 279 281 282 282 281 281 281
282 282 284 279 273 274 272 268 269 268 270 270 272 272 271 273 272 272 273 275 271 269 269 273 274 275 278 279 279 279 278 278 275 275 273 273 275 276 276 276 276 276 276 276 276 277 277 278 280 281 281 281 281 281
279 284 278 278 274 273 271 274 271 270 270 271 271 272 270 268 269 271 274 271 270 272 274 275 276 277 277 277 278 278 278 277 276 276 276 275 274 274 274 275 275 275 275 276 276 276 277 278 279 279 279 279 280 280
283 281 277 277 271 266 267 275 271 270 266 267 269 268 268 269 272 275 270 272 274 277 277 278 278 279 278 277 277 276 276 275 274 274 274 274 274 274 274 275 275 274 274 275 277 277 277 278 278 278 278 278 278 278
284 276 270 269 269 261 269 264 270 270 267 265 265 263 268 268 271 268 267 271 273 275 277 276 276 274 274 273 273 273 274 275 273 273 273 272 271 272 273 273 274 275 275 276 276 276 277 277 277 277 277 277 277 277
270 266 269 265 266 263 260 264 261 263 260 263 260 262 266 267 263 263 267 269 269 272 273 273 273 272 270 270 272 272 273 273 270 269 271 272 271 272 272 273 274 275 276 275 275 276 276 277 277 277 277 277 277 278
266 262 264 263 261 263 263 257 256 260 260 260 263 265 264 261 259 262 266 269 271 271 271 271 270 270 270 271 269 269 270 272 270 268 270 272 271 270 269 269 270 272 277 277 277 276 277 278 277 277 278 279 279 282
261 260 267 271 270 269 265 266 268 264 259 259 262 260 259 257 260 265 268 270 271 272 273 272 271 270 269 269 270 270 270 271 270 269 271 271 272 272 271 270 270 273 277 277 277 277 277 277 277 278 278 282 284 285
268 268 262 265 266 269 259 258 258 259 261 265 263 260 260 261 264 271 272 272 272 272 271 272 272 271 270 269 269 269 269 269 269 270 271 272 273 274 275 276 277 277 278 279 279 281 280 279 280 282 283 280 280 281
266 270 267 257 257 263 263 263 263 266 269 265 262 263 265 269 274 273 272 271 271 270 270 269 269 270 269 269 269 268 268 268 266 264 264 265 267 271 276 276 276 277 277 283 281 281 282 282 282 280 279 278 278 278
263 271 264 254 258 261 265 268 266 267 269 268 266 269 271 273 271 268 269 269 269 268 269 269 268 267 265 264 264 265 267 268 268 267 265 266 268 272 273 273 275 279 281 280 280 280 281 281 280 278 277 277 276 275
267 264 260 260 260 264 264 260 259 261 260 260 258 264 266 266 266 266 268 269 268 269 268 266 266 266 264 263 263 263 263 268 269 269 270 270 271 276 278 278 280 280 280 279 279 279 278 277 276 274 272 271 271 271
259 261 260 258 262 261 259 259 257 257 257 258 263 258 262 264 264 267 269 270 270 268 267 266 264 263 265 266 267 267 267 268 269 270 274 276 277 277 278 278 278 278 278 277 277 276 274 272 272 271 270 269 269 270
254 254 255 256 260 261 259 258 258 258 258 258 260 258 260 262 263 268 271 271 269 268 266 266 266 267 267 267 268 269 270 273 274 274 275 276 276 276 276 276 275 275 274 273 273 272 271 271 270 270 269 269 268 268
Wind_Speed
17 16 17 18 17 16 15 16 16 17 17 16 16 16 15 15 14 7 3 7 5 6 10 13 10 11 8 7 11 8 7 6 6 6 5 5 7 8 10 11 7 10 6 7 10 9 12 8 4 7 4 2 4 2
18 18 19 18 16 17 16 15 17 17 17 17 17 17 17 17 17 14 5 5 7 6 8 5 11 16 17 18 13 8 6 10 4 5 3 3 4 4 11 12 10 14 11 5 8 6 3 5 3 2 4 5 6 7
19 19 18 17 16 16 16 15 16 17 16 16 17 17 16 16 14 11 6 5 4 5 8 8 10 13 11 12 13 10 9 11 12 11 9 9 14 9 12 14 19 18 6 10 12 15 13 10 14 14 10 11 14 10
18 18 17 17 17 16 15 15 16 16 14 15 17 13 12 12 12 9 2 2 1 3 6 8 2 2 3 8 14 16 18 16 7 8 8 8 11 8 12 14 16 13 15 20 22 18 13 16 16 17 20 20 15 11
16 15 16 16 15 13 15 16 16 14 11 13 12 13 15 15 9 1 4 6 7 4 6 8 11 15 14 12 14 15 13 14 9 8 8 12 14 15 15 13 14 15 19 15 14 12 15 19 20 23 22 20 18 19
16 16 15 14 12 13 15 15 15 13 11 12 12 14 12 11 12 2 4 0 4 2 4 5 3 8 7 6 10 13 11 8 7 6 7 5 3 5 4 5 9 13 19 19 19 18 20 22 21 24 20 19 19 19
16 16 15 14 12 7 7 10 10 7 9 10 13 13 14 15 1 3 4 3 5 3 4 5 4 3 4 5 4 6 4 4 6 5 5 9 10 10 10 16 21 19 19 19 18 19 24 25 22 22 22 22 22 20
17 16 15 12 5 6 7 7 7 7 8 11 13 15 17 17 10 4 4 9 3 0 1 4 5 5 5 5 4 2 4 3 5 5 3 8 7 6 8 18 16 15 17 20 20 21 24 22 22 21 20 18 21 20
18 14 13 9 7 6 6 8 7 8 11 13 11 14 4 2 0 2 13 16 1 3 3 2 3 6 6 8 6 3 3 4 3 5 7 3 5 7 17 21 20 19 20 21 20 19 21 22 23 22 20 21 21 19
16 13 11 1 2 5 7 5 8 10 9 6 5 4 4 2 11 9 4 4 3 1 3 2 2 4 3 7 4 3 2 3 3 5 2 5 8 21 17 19 17 19 18 16 19 22 19 18 17 21 19 17 18 18
7 7 4 5 7 4 5 7 8 5 7 4 3 2 2 7 3 4 2 2 3 2 2 2 5 7 4 6 6 4 3 3 3 2 3 4 5 6 9 13 15 16 17 19 19 20 19 19 17 15 16 16 16 17
16 11 6 3 3 5 7 8 6 3 3 4 2 2 3 5 3 4 2 3 3 3 3 3 3 4 4 3 3 4 4 3 6 3 4 5 8 16 5 5 5 3 3 3 5 11 15 15 14 14 15 16 17 16
8 5 4 4 6 5 5 4 5 2 6 3 4 3 3 3 4 3 3 2 3 2 3 5 6 4 3 2 4 3 4 7 4 4 9 9 12 11 8 6 6 5 5 6 5 7 9 10 9 10 12 13 15 15
5 5 5 6 4 5 2 4 3 7 4 2 2 4 3 3 5 6 6 4 4 3 6 6 5 3 2 3 4 4 5 4 4 3 10 9 12 9 12 10 8 11 12 8 10 9 10 12 11 11 10 12 12 13
5 6 6 5 3 3 4 5 7 3 3 2 3 5 6 5 5 5 5 5 5 5 6 5 3 3 3 4 4 4 4 5 6 8 10 9 13 13 14 14 14 11 10 10 12 12 12 12 12 14 14 14 14 14
6 2 2 5 4 5 2 6 3 2 2 3 3 3 4 2 6 5 5 9 5 4 1 1 3 2 5 4 2 7 7 15 13 10 10 12 17 18 17 16 16 15 16 15 15 15 15 14 13 14 15 16 16 17
2 2 5 4 4 4 3 3 1 4 5 4 5 5 6 6 7 10 8 7 2 2 2 3 4 7 2 4 5 5 8 11 10 14 14 18 20 20 19 18 16 17 17 18 17 16 16 16 15 15 18 19 18 19
3 4 6 6 1 3 2 2 2 2 5 4 3 4 4 6 7 9 9 4 4 4 3 5 3 5 6 9 10 11 9 11 12 13 14 17 19 19 17 18 18 17 17 18 17 16 16 16 17 15 18 17 18 18
5 5 8 7 4 4 3 3 3 4 7 2 5 4 4 6 7 10 10 6 7 5 2 3 7 7 9 9 12 11 10 11 14 16 16 19 19 18 19 17 16 16 16 17 16 13 13 18 16 14 13 13 14 13
5 6 4 3 10 3 3 3 1 2 3 3 3 4 4 5 7 6 8 5 5 4 4 6 7 9 10 11 10 11 13 14 15 17 17 13 13 17 17 16 12 16 15 16 14 15 13 14 13 13 13 14 14 15
2 3 2 3 2 2 2 2 3 4 2 3 2 2 4 3 4 5 6 1 3 4 6 8 10 10 12 11 12 12 14 14 14 14 17 18 15 14 14 13 14 12 12 11 12 13 15 14 13 12 13 14 13 14
3 2 2 1 2 3 3 4 3 1 2 3 3 3 4 3 4 4 2 3 4 5 5 7 9 9 10 14 15 14 17 20 19 15 18 17 14 13 12 11 12 12 12 12 12 13 14 12 12 12 13 14 15 14
3 3 2 3 2 1 5 1 3 3 3 3 2 3 3 3 4 2 4 4 6 4 5 3 7 11 13 15 16 17 18 18 13 13 14 13 13 13 12 13 11 12 12 13 11 12 12 15 14 14 13 14 13 14
8 3 5 4 5 4 2 2 3 3 1 2 2 4 4 4 3 2 5 6 5 2 2 8 7 9 11 15 13 14 13 11 12 12 11 12 12 12 11 12 12 12 12 13 12 12 12 13 15 12 13 14 14 14
3 5 4 5 2 1 1 2 2 0 4 4 2 5 4 2 2 4 8 6 2 2 4 5 8 9 11 13 13 13 16 11 11 15 12 11 12 12 12 11 11 11 10 11 11 11 11 10 10 12 13 13 16 16
7 5 9 7 3 5 5 3 5 6 3 3 6 3 2 0 1 7 4 3 2 4 3 7 9 11 12 12 14 13 14 11 12 13 14 11 11 12 13 14 14 13 7 8 10 11 13 12 12 15 14 17 15 5
5 6 5 4 3 3 1 3 1 2 4 6 4 2 1 2 6 6 3 3 3 2 6 7 8 10 13 13 12 12 12 12 13 14 15 15 14 11 11 12 15 11 10 12 12 13 13 13 13 12 12 9 5 5
5 4 7 5 4 3 4 1 3 5 5 3 3 3 5 7 8 7 5 1 2 5 6 7 8 9 11 12 12 12 13 12 14 14 12 11 10 9 11 9 10 18 14 13 13 11 9 9 9 8 7 12 12 12
3 3 5 2 2 2 5 6 6 5 4 5 5 5 7 6 6 6 4 1 3 4 7 10 10 10 11 10 10 9 10 10 14 21 21 14 14 10 7 9 10 10 9 7 6 8 8 7 9 12 14 13 12 13
4 4 3 2 5 6 6 7 4 3 3 4 3 4 6 7 3 1 1 1 5 6 9 10 11 11 13 13 16 14 9 9 9 9 11 13 12 13 13 12 11 9 4 5 6 7 10 10 13 13 16 14 14 16
2 3 3 2 5 5 3 2 3 2 2 3 1 4 6 4 4 1 2 1 3 6 9 13 13 12 12 13 13 16 16 7 10 15 15 13 13 11 7 7 5 4 6 8 8 9 12 13 15 19 21 23 23 20
1 4 4 2 4 2 3 3 3 3 3 3 2 2 3 2 3 2 1 3 7 8 14 13 14 16 16 13 13 13 17 14 14 13 15 8 5 5 4 5 6 7 9 10 11 13 19 20 18 21 23 26 26 26
2 1 1 1 4 4 3 4 4 6 2 3 3 1 2 2 5 3 3 1 3 8 13 14 14 15 18 18 17 15 15 9 9 11 10 6 7 8 7 7 9 11 16 15 16 18 22 28 24 27 27 26 26 26
Wind_Direction
293 293 293 291 292 295 296 299 299 300 302 301 299 299 298 294 291 287 243 192 199 252 264 221 229 248 252 240 265 292 279 238 257 241 238 224 240 229 241 239 235 222 204 204 220 228 246 189 168 219 81 128 170 187
290 288 288 293 293 294 291 292 294 296 297 299 297 298 294 295 290 284 244 201 210 237 261 243 249 242 237 255 271 249 262 266 259 268 244 254 252 236 243 249 238 247 226 201 206 213 287 184 187 147 172 255 241 240
282 286 292 293 292 292 290 289 292 295 297 297 300 299 306 315 322 328 289 218 208 256 264 254 237 237 240 233 231 258 251 249 247 246 265 246 245 231 245 249 256 243 215 238 250 242 237 242 269 281 270 262 259 237
284 285 286 288 287 290 294 292 293 296 292 300 303 303 301 303 307 297 208 196 222 273 263 296 87 173 245 221 226 225 250 265 263 284 275 257 267 248 248 254 242 233 248 252 253 251 262 266 269 275 274 280 258 245
282 284 285 287 288 294 295 295 293 294 296 304 305 309 308 311 335 355 256 225 204 214 293 289 301 277 264 238 237 241 249 247 266 258 247 261 265 257 242 246 239 222 231 231 244 250 251 264 267 260 258 253 246 252
283 286 291 292 284 296 299 305 299 281 293 302 299 303 314 321 321 21 323 308 212 191 271 277 282 259 251 247 258 245 239 237 224 238 248 251 217 297 279 256 241 224 227 236 253 255 258 263 262 258 255 257 257 249
284 286 290 293 286 311 342 339 346 352 333 336 325 310 307 308 292 202 219 218 162 180 243 257 269 281 286 246 244 252 246 212 220 238 239 260 261 264 255 255 256 257 251 245 250 257 259 257 257 253 254 255 259 252
277 280 277 289 230 283 304 299 306 301 293 295 305 312 304 299 308 287 266 307 27 172 311 273 283 318 357 290 290 229 244 210 218 238 241 243 253 239 258 256 264 261 256 257 253 247 249 255 256 255 258 255 254 250
277 275 285 235 237 277 279 280 302 310 307 326 323 313 353 60 93 262 302 307 183 205 276 256 341 324 339 303 291 284 259 239 251 240 242 199 238 236 251 262 271 255 239 247 252 247 246 244 250 251 249 246 245 253
281 271 262 241 304 266 288 303 308 311 358 7 31 37 335 284 298 322 4 14 26 356 205 255 77 284 271 308 286 295 214 251 242 234 197 221 246 248 265 268 270 271 264 247 256 262 255 252 254 259 256 253 251 250
250 203 212 227 246 267 288 296 303 357 52 39 30 265 262 319 40 30 349 21 334 302 253 194 236 315 304 282 285 251 266 266 257 291 246 222 255 275 281 267 268 271 267 260 253 253 252 262 266 263 259 255 254 253
245 222 189 197 224 268 289 302 326 96 168 185 198 58 354 28 40 64 304 304 227 262 215 251 296 304 275 230 232 265 259 279 257 186 221 272 285 291 292 285 295 315 345 341 297 269 263 260 257 256 261 262 261 260
123 144 190 213 250 284 292 313 314 139 109 48 47 36 31 324 38 122 267 276 265 247 266 311 307 295 293 294 250 256 254 244 300 236 252 259 277 290 253 260 271 274 271 294 285 277 275 269 266 252 258 259 258 257
151 203 219 241 269 288 309 281 317 115 83 98 100 301 170 262 244 200 203 214 241 243 293 299 289 247 252 264 247 253 256 292 272 253 274 286 299 295 300 273 253 263 269 285 285 283 284 282 278 276 267 268 262 259
198 227 245 256 250 246 271 293 99 67 109 174 126 238 224 234 253 242 242 275 255 272 288 292 270 251 254 269 246 271 271 249 235 283 306 308 302 299 299 298 300 288 284 276 284 280 272 273 271 272 272 272 266 260
219 271 225 194 210 258 316 97 72 104 78 146 230 245 229 267 270 265 255 257 277 267 100 130 254 288 251 233 219 231 258 267 284 302 303 300 297 293 285 277 278 278 267 267 270 267 266 264 261 264 270 269 265 261
208 170 202 188 217 275 40 107 114 196 206 193 244 228 243 273 258 267 276 265 176 158 222 236 241 231 257 234 242 225 254 280 309 300 292 295 294 293 292 285 276 272 264 261 265 268 265 264 267 265 262 263 264 261
159 218 211 237 166 72 53 95 168 224 234 229 228 236 197 236 261 269 267 247 175 204 204 222 246 234 244 253 260 270 282 283 280 278 283 291 295 293 290 285 281 270 266 266 266 267 269 267 266 264 265 265 265 264
195 202 234 246 155 121 168 237 153 231 228 223 251 257 245 256 248 256 268 247 216 202 182 226 235 235 237 253 266 275 276 283 292 288 284 290 292 293 293 296 298 286 275 269 266 263 262 260 261 264 264 264 264 266
273 270 242 260 138 133 222 274 23 207 248 233 235 251 231 244 274 266 272 247 189 181 200 225 233 256 264 276 291 275 270 283 297 293 290 292 297 296 290 291 286 290 290 283 271 262 263 262 259 261 263 263 265 267
53 257 275 119 64 122 204 189 247 212 246 245 265 223 258 256 249 270 280 147 161 208 225 234 250 264 270 265 275 285 283 292 296 293 296 297 298 292 287 281 279 276 274 274 274 275 270 266 271 272 271 270 269 270
228 168 88 30 130 209 229 199 215 182 224 258 283 227 260 272 270 239 231 198 232 235 216 274 282 286 291 298 302 304 300 296 294 288 287 289 294 295 292 292 290 282 277 275 275 274 274 277 277 273 270 270 269 268
149 112 142 163 194 325 256 171 222 205 222 252 321 261 251 247 243 338 253 233 262 262 277 265 280 291 299 303 300 294 294 300 293 292 295 295 290 290 289 287 284 282 281 277 273 274 276 277 276 274 272 273 272 270
155 174 177 206 189 248 315 250 224 246 292 255 221 261 254 233 320 263 253 272 273 295 273 311 320 305 300 301 297 297 304 305 296 290 294 294 290 288 284 282 280 274 270 274 274 272 271 271 272 272 270 271 271 270
133 243 171 216 257 123 231 269 291 12 244 220 208 270 257 354 261 262 267 276 286 268 302 314 310 307 302 300 301 306 314 313 306 299 298 292 290 290 290 286 282 278 277 274 274 274 273 272 270 271 274 275 276 284
208 232 177 197 209 172 201 212 215 217 199 252 238 258 12 156 251 255 239 243 254 299 294 315 313 305 304 303 306 309 311 313 304 293 294 298 295 291 292 295 301 298 280 269 271 276 282 285 284 285 288 290 294 295
207 234 213 218 190 171 251 259 205 175 206 221 242 284 45 279 246 251 266 234 278 277 305 299 296 298 300 306 303 302 302 300 294 291 294 293 287 278 270 272 280 275 290 293 287 284 283 287 290 294 296 306 57 56
205 166 180 208 198 180 175 191 208 220 232 209 125 228 214 212 261 282 271 261 279 300 293 291 301 302 303 305 303 303 302 304 299 297 288 279 268 277 272 265 265 276 278 280 278 280 271 274 282 297 43 62 58 60
194 204 130 179 352 199 210 203 221 228 207 166 195 244 252 242 270 285 314 16 314 308 308 325 322 317 309 306 305 301 299 304 310 311 311 310 317 313 320 312 303 300 294 296 30 17 13 32 72 79 75 74 69 66
236 161 128 127 165 219 235 188 229 250 226 208 236 285 276 274 265 132 137 346 338 341 327 321 318 318 315 319 313 309 302 292 281 270 286 294 295 300 306 302 302 305 353 49 53 45 51 70 78 76 76 74 72 72
104 102 87 155 220 241 244 309 287 256 274 271 296 234 265 304 309 236 223 291 300 327 328 328 323 320 316 311 308 308 308 303 296 290 281 278 278 281 301 313 344 36 61 66 69 79 84 80 79 79 77 80 80 80
91 175 157 198 264 280 5 13 316 304 322 333 277 277 300 308 283 292 239 310 329 335 334 324 322 316 312 305 296 286 277 282 290 289 293 297 309 342 10 38 47 65 72 75 78 82 83 88 89 86 84 85 85 84
62 75 92 353 333 326 333 351 14 325 306 294 283 286 262 259 266 304 332 253 335 331 326 323 312 310 308 304 293 292 293 286 317 340 352 21 46 52 58 65 77 82 84 84 84 87 89 92 90 91 89 87 85 83